When you browse on this site, cookies collect data to enhance your experience and personalize the content and advertising you see.
Visit our Privacy Policy to learn more. By continuing to use the site, you agree to this use of cookies and data.
  • In Sweden
  • List of Countries
  • For 7 days
  • Water Temperature
  • Satellite Maps
  • Weather Map
  • Weather Widgets
  • user-avatar
    Login

    Hourly Weather Chernoreck

    Today, 22 April, Monday

    Time Temperature Precipitation Wind Pressure Humidity
    00:00 +4°C° 0 mm 1 mps 757 mmHg 62%
    01:00 +4°C° 0 mm 1 mps 757 mmHg 62%
    02:00 +3°C° 0 mm 1 mps 757 mmHg 63%
    03:00 +3°C° 0 mm 1 mps 757 mmHg 63%
    04:00 +2°C° 0 mm 0 mps 757 mmHg 64%
    05:00 +1°C° 0 mm 0 mps 758 mmHg 65%
    06:00 +3°C° 0 mm 0 mps 758 mmHg 60%
    07:00 +4°C° 0 mm 0 mps 758 mmHg 55%
    08:00 +6°C° 0 mm 0 mps 758 mmHg 50%
    09:00 +7°C° 0 mm 0 mps 758 mmHg 46%
    10:00 +8°C° 0 mm 0 mps 758 mmHg 42%
    11:00 +10°C° 0 mm 1 mps 758 mmHg 39%
    12:00 +9°C° 0 mm 0 mps 758 mmHg 37%
    13:00 +10°C° 0 mm 0 mps 758 mmHg 36%
    14:00 +10°C° 0 mm 0 mps 758 mmHg 34%
    15:00 +10°C° 0 mm 0 mps 758 mmHg 33%
    16:00 +10°C° 0 mm 0 mps 758 mmHg 33%
    17:00 +11°C° 0 mm 1 mps 758 mmHg 33%
    18:00 +11°C° 0 mm 1 mps 758 mmHg 35%
    19:00 +10°C° 0 mm 1 mps 758 mmHg 38%
    20:00 +10°C° 0 mm 1 mps 758 mmHg 41%
    21:00 +9°C° 0 mm 1 mps 757 mmHg 42%
    22:00 +9°C° 0 mm 1 mps 757 mmHg 43%
    23:00 +9°C° 0 mm 1 mps 757 mmHg 44%

    Tomorrow, 23 April, Tuesday

    Time Temperature Precipitation Wind Pressure Humidity
    00:00 +8°C° 0 mm 1 mps 757 mmHg 45%
    01:00 +8°C° 0 mm 1 mps 757 mmHg 46%
    02:00 +7°C° 0 mm 1 mps 757 mmHg 47%
    03:00 +7°C° 0 mm 1 mps 756 mmHg 48%
    04:00 +7°C° 0 mm 1 mps 756 mmHg 49%
    05:00 +5°C° 0 mm 0 mps 756 mmHg 50%
    06:00 +7°C° 0 mm 1 mps 756 mmHg 46%
    07:00 +9°C° 0 mm 1 mps 756 mmHg 42%
    08:00 +9°C° 0 mm 2 mps 756 mmHg 39%
    09:00 +10°C° 0 mm 2 mps 756 mmHg 36%
    10:00 +10°C° 0 mm 2 mps 755 mmHg 34%
    11:00 +11°C° 0 mm 3 mps 755 mmHg 32%
    12:00 +11°C° 0 mm 3 mps 755 mmHg 32%
    13:00 +12°C° 0 mm 3 mps 754 mmHg 31%
    14:00 +13°C° 0 mm 2 mps 754 mmHg 31%
    15:00 +13°C° 0 mm 2 mps 753 mmHg 33%
    16:00 +13°C° 0 mm 2 mps 753 mmHg 35%
    17:00 +12°C° 0 mm 2 mps 752 mmHg 37%
    18:00 +12°C° 0.1 mm 2 mps 752 mmHg 42%
    19:00 +11°C° 0.1 mm 1 mps 752 mmHg 47%
    20:00 +10°C° 0.1 mm 1 mps 752 mmHg 52%
    21:00 +8°C° 0 mm 2 mps 752 mmHg 57%
    22:00 +7°C° 0 mm 2 mps 752 mmHg 62%
    23:00 +7°C° 0 mm 3 mps 752 mmHg 67%

    Day after tomorrow, 24 April, Wednesday

    Time Temperature Precipitation Wind Pressure Humidity
    00:00 +5°C° 0 mm 3 mps 752 mmHg 69%
    01:00 +5°C° 0 mm 3 mps 752 mmHg 71%
    02:00 +4°C° 0 mm 3 mps 751 mmHg 73%
    03:00 +4°C° 0 mm 3 mps 751 mmHg 75%
    04:00 +4°C° 0 mm 3 mps 751 mmHg 77%
    05:00 +4°C° 0 mm 3 mps 751 mmHg 80%
    06:00 +5°C° 0 mm 4 mps 751 mmHg 71%
    07:00 +7°C° 0 mm 4 mps 751 mmHg 63%
    08:00 +10°C° 0 mm 4 mps 751 mmHg 54%
    09:00 +12°C° 0 mm 4 mps 751 mmHg 50%
    10:00 +13°C° 0 mm 5 mps 751 mmHg 46%
    11:00 +15°C° 0 mm 5 mps 751 mmHg 41%
    12:00 +15°C° 0 mm 5 mps 750 mmHg 40%
    13:00 +15°C° 0 mm 5 mps 750 mmHg 39%
    14:00 +15°C° 0 mm 5 mps 749 mmHg 38%
    15:00 +15°C° 0 mm 5 mps 749 mmHg 39%
    16:00 +15°C° 0 mm 4 mps 749 mmHg 39%
    17:00 +15°C° 0 mm 4 mps 749 mmHg 40%
    18:00 +14°C° 0 mm 3 mps 749 mmHg 43%
    19:00 +13°C° 0 mm 3 mps 749 mmHg 46%
    20:00 +11°C° 0 mm 3 mps 749 mmHg 50%
    21:00 +11°C° 0 mm 3 mps 749 mmHg 51%
    22:00 +11°C° 0 mm 3 mps 748 mmHg 52%
    23:00 +10°C° 0 mm 4 mps 748 mmHg 54%

    25 April, Thursday

    Time Temperature Precipitation Wind Pressure Humidity
    00:00 +10°C° 0 mm 4 mps 748 mmHg 55%
    01:00 +8°C° 0 mm 4 mps 747 mmHg 56%
    02:00 +8°C° 0 mm 4 mps 747 mmHg 57%
    03:00 +8°C° 0 mm 4 mps 747 mmHg 58%
    04:00 +7°C° 0 mm 4 mps 747 mmHg 58%
    05:00 +7°C° 0 mm 4 mps 746 mmHg 59%
    06:00 +8°C° 0 mm 5 mps 746 mmHg 55%
    07:00 +10°C° 0 mm 6 mps 746 mmHg 52%
    08:00 +11°C° 0 mm 7 mps 746 mmHg 48%
    09:00 +12°C° 0.1 mm 8 mps 746 mmHg 47%
    10:00 +13°C° 0.1 mm 8 mps 746 mmHg 46%
    11:00 +15°C° 0.1 mm 9 mps 745 mmHg 45%
    12:00 +15°C° 0 mm 9 mps 745 mmHg 41%
    13:00 +14°C° 0 mm 10 mps 745 mmHg 37%
    14:00 +16°C° 0 mm 10 mps 745 mmHg 32%
    15:00 +15°C° 0 mm 9 mps 745 mmHg 35%
    16:00 +13°C° 0 mm 9 mps 746 mmHg 37%
    17:00 +12°C° 0 mm 8 mps 746 mmHg 40%
    18:00 +11°C° 0 mm 7 mps 747 mmHg 43%
    19:00 +10°C° 0 mm 5 mps 747 mmHg 46%
    20:00 +10°C° 0 mm 4 mps 748 mmHg 49%
    21:00 +9°C° 0 mm 3 mps 748 mmHg 52%
    22:00 +8°C° 0 mm 3 mps 748 mmHg 55%
    23:00 +8°C° 0 mm 2 mps 749 mmHg 57%

    26 April, Friday

    Time Temperature Precipitation Wind Pressure Humidity
    00:00 +8°C° 0 mm 2 mps 748 mmHg 58%
    01:00 +8°C° 0 mm 3 mps 748 mmHg 59%
    02:00 +8°C° 0 mm 3 mps 747 mmHg 60%
    03:00 +7°C° 0.8 mm 3 mps 747 mmHg 69%
    04:00 +6°C° 0.8 mm 4 mps 747 mmHg 78%
    05:00 +6°C° 0.8 mm 4 mps 746 mmHg 87%
    06:00 +7°C° 0.2 mm 5 mps 746 mmHg 83%
    07:00 +8°C° 0.2 mm 6 mps 746 mmHg 79%
    08:00 +9°C° 0.2 mm 7 mps 746 mmHg 75%
    09:00 +9°C° 0.6 mm 7 mps 746 mmHg 76%
    10:00 +8°C° 0.6 mm 6 mps 746 mmHg 77%
    11:00 +8°C° 0.6 mm 6 mps 746 mmHg 78%
    12:00 +7°C° 0.1 mm 6 mps 747 mmHg 74%
    13:00 +7°C° 0.1 mm 5 mps 747 mmHg 70%
    14:00 +6°C° 0.1 mm 5 mps 748 mmHg 67%
    15:00 +6°C° 0 mm 5 mps 748 mmHg 66%
    16:00 +5°C° 0 mm 5 mps 749 mmHg 66%
    17:00 +5°C° 0 mm 5 mps 749 mmHg 66%
    18:00 +3°C° 0 mm 5 mps 750 mmHg 67%
    19:00 +3°C° 0 mm 4 mps 750 mmHg 68%
    20:00 +3°C° 0 mm 4 mps 750 mmHg 70%
    21:00 +1°C° 0 mm 4 mps 751 mmHg 71%
    22:00 +1°C° 0 mm 4 mps 751 mmHg 72%
    23:00 +2°C° 0 mm 3 mps 751 mmHg 73%

    27 April, Saturday

    Time Temperature Precipitation Wind Pressure Humidity
    00:00 +1°C° 0 mm 3 mps 751 mmHg 75%
    01:00 0°C° 0 mm 3 mps 752 mmHg 77%
    02:00 0°C° 0 mm 3 mps 752 mmHg 80%
    03:00 -1°C° 0 mm 3 mps 752 mmHg 80%
    04:00 -1°C° 0 mm 2 mps 753 mmHg 80%
    05:00 -1°C° 0 mm 2 mps 753 mmHg 80%
    06:00 +1°C° 0 mm 2 mps 754 mmHg 71%
    07:00 +2°C° 0 mm 2 mps 754 mmHg 62%
    08:00 +3°C° 0 mm 2 mps 755 mmHg 52%
    09:00 +6°C° 0 mm 1 mps 755 mmHg 47%
    10:00 +7°C° 0 mm 1 mps 755 mmHg 41%
    11:00 +8°C° 0 mm 1 mps 755 mmHg 36%
    12:00 +8°C° 0 mm 2 mps 755 mmHg 33%
    13:00 +9°C° 0 mm 2 mps 754 mmHg 30%
    14:00 +10°C° 0 mm 3 mps 754 mmHg 27%
    15:00 +10°C° 0 mm 3 mps 754 mmHg 28%
    16:00 +10°C° 0 mm 4 mps 754 mmHg 28%
    17:00 +10°C° 0 mm 4 mps 754 mmHg 28%
    18:00 +10°C° 0 mm 4 mps 754 mmHg 33%
    19:00 +8°C° 0 mm 4 mps 754 mmHg 39%
    20:00 +7°C° 0 mm 4 mps 754 mmHg 44%
    21:00 +7°C° 0 mm 4 mps 754 mmHg 50%
    22:00 +7°C° 0 mm 5 mps 754 mmHg 55%
    23:00 +5°C° 0 mm 6 mps 754 mmHg 60%
    Show more